| time (UTC) | temp F | wind direction | speed MPH | gust MPH | rain 1hr in | rain 24hr in | rain mn in | humidity % | barometer mb |
| 20260504100536 | 41 | 0.0 | 0.0 | 0.00 | 0.00 | 0.00 | 66 | 1015.0 | |
| 20260504081536 | 42 | 0.0 | 0.0 | 0.00 | 0.00 | 0.00 | 66 | 1015.4 | |
| 20260504080516 | 43 | 0.0 | 0.0 | 0.00 | 0.00 | 0.00 | 65 | 1015.2 | |
| 20260504050516 | 43 | 0.0 | 1.0 | 0.00 | 0.00 | 0.00 | 63 | 1014.7 | |
| 20260504045516 | 43 | 0.0 | 1.0 | 0.00 | 0.00 | 0.00 | 63 | 1014.7 | |
| 20260504044515 | 43 | 0.0 | 1.0 | 0.00 | 0.00 | 0.00 | 63 | 1014.5 | |
| 20260504043516 | 43 | 0.0 | 0.0 | 0.00 | 0.00 | 0.00 | 63 | 1014.5 | |
| 20260504042515 | 43 | 0.0 | 1.0 | 0.00 | 0.00 | 0.00 | 63 | 1014.3 | |
| 20260504041516 | 43 | 0.0 | 1.0 | 0.00 | 0.00 | 0.00 | 64 | 1014.3 | |
| 20260504040515 | 42 | 0.0 | 1.0 | 0.00 | 0.00 | 0.00 | 65 | 1014.2 | |
| 20260504035516 | 42 | 0.0 | 1.0 | 0.00 | 0.00 | 0.00 | 65 | 1013.9 | |
| 20260504034516 | 42 | 0.0 | 0.0 | 0.00 | 0.00 | 0.00 | 65 | 1013.9 | |
| 20260504033517 | 42 | 0.0 | 0.0 | 0.00 | 0.00 | 0.00 | 66 | 1013.9 | |
| 20260504032517 | 42 | 0.0 | 1.0 | 0.00 | 0.00 | 0.00 | 66 | 1014.0 | |
| 20260504031516 | 42 | 0.0 | 0.0 | 0.00 | 0.00 | 0.00 | 67 | 1014.1 | |
| 20260504030516 | 42 | 0.0 | 0.0 | 0.00 | 0.00 | 0.00 | 67 | 1014.1 | |
| 20260504025516 | 42 | 0.0 | 0.0 | 0.00 | 0.00 | 0.00 | 65 | 1014.0 | |
| 20260504024516 | 42 | 0.0 | 0.0 | 0.00 | 0.00 | 0.00 | 64 | 1014.0 | |
| 20260504023516 | 42 | 0.0 | 1.0 | 0.00 | 0.00 | 0.00 | 67 | 1014.2 | |
| 20260504022516 | 42 | 0.0 | 0.0 | 0.00 | 0.00 | 0.00 | 66 | 1014.2 | |
| 20260504021516 | 43 | 0.0 | 0.0 | 0.00 | 0.00 | 0.00 | 65 | 1014.1 | |
| 20260504020516 | 43 | 0.0 | 0.0 | 0.00 | 0.00 | 0.00 | 64 | 1014.1 | |
| 20260504015516 | 44 | 0.0 | 0.0 | 0.00 | 0.00 | 0.00 | 62 | 1014.1 | |
| 20260504014516 | 44 | 0.0 | 0.0 | 0.00 | 0.00 | 0.00 | 61 | 1013.9 | |
| 20260504013516 | 45 | 0.0 | 0.0 | 0.00 | 0.00 | 0.00 | 60 | 1014.2 | |
| 20260504012516 | 45 | 0.0 | 0.0 | 0.00 | 0.00 | 0.00 | 59 | 1014.1 | |
| 20260504011517 | 45 | 0.0 | 0.0 | 0.00 | 0.00 | 0.00 | 60 | 1014.1 | |
| 20260504010536 | 45 | 0.0 | 1.0 | 0.00 | 0.00 | 0.00 | 61 | 1013.8 | |
| 20260504005516 | 46 | 0.0 | 0.0 | 0.00 | 0.00 | 0.00 | 61 | 1013.6 | |
| 20260504004516 | 46 | 0.0 | 0.0 | 0.00 | 0.00 | 0.00 | 58 | 1013.7 | |
| 20260504003516 | 47 | 0.0 | 0.0 | 0.00 | 0.00 | 0.00 | 57 | 1013.5 | |
| 20260504002516 | 48 | 0.0 | 0.0 | 0.00 | 0.00 | 0.00 | 55 | 1013.5 | |
| 20260504001516 | 49 | 0.0 | 0.0 | 0.00 | 0.00 | 0.00 | 52 | 1013.4 | |
| 20260504000516 | 50 | 0.0 | 0.0 | 0.00 | 0.00 | 0.00 | 49 | 1013.4 | |
| 20260503235516 | 50 | 0.0 | 0.0 | 0.00 | 0.00 | 0.00 | 49 | 1013.3 | |
| 20260503234516 | 51 | 0.0 | 1.0 | 0.00 | 0.00 | 0.00 | 47 | 1013.2 | |
| 20260503233516 | 51 | 0.0 | 0.0 | 0.00 | 0.00 | 0.00 | 48 | 1013.1 | |
| 20260503232516 | 52 | 0.0 | 1.0 | 0.00 | 0.00 | 0.00 | 45 | 1013.1 | |
| 20260503231536 | 53 | 0.0 | 2.0 | 0.00 | 0.00 | 0.00 | 45 | 1013.1 | |
| 20260503230516 | 53 | 293 | 1.0 | 3.0 | 0.00 | 0.00 | 0.00 | 44 | 1013.0 |
| 20260503225536 | 53 | 293 | 2.0 | 7.0 | 0.00 | 0.00 | 0.00 | 42 | 1012.8 |
| 20260503224516 | 53 | 293 | 1.0 | 3.0 | 0.00 | 0.00 | 0.00 | 42 | 1012.7 |
| 20260503223516 | 53 | 293 | 1.0 | 5.0 | 0.00 | 0.00 | 0.00 | 41 | 1012.8 |
| 20260503222536 | 54 | 293 | 2.0 | 8.0 | 0.00 | 0.00 | 0.00 | 39 | 1012.9 |
| 20260503221516 | 55 | 293 | 2.0 | 6.0 | 0.00 | 0.00 | 0.00 | 38 | 1012.8 |
| 20260503220516 | 54 | 293 | 1.0 | 4.0 | 0.00 | 0.00 | 0.00 | 38 | 1012.7 |
| 20260503215516 | 55 | 293 | 1.0 | 4.0 | 0.00 | 0.00 | 0.00 | 38 | 1012.7 |
| 20260503214516 | 55 | 315 | 1.0 | 5.0 | 0.00 | 0.00 | 0.00 | 37 | 1012.6 |
| 20260503213516 | 56 | 293 | 1.0 | 6.0 | 0.00 | 0.00 | 0.00 | 36 | 1012.8 |
| 20260503212516 | 56 | 293 | 2.0 | 6.0 | 0.00 | 0.00 | 0.00 | 35 | 1012.6 |
| 20260503211516 | 56 | 293 | 1.0 | 4.0 | 0.00 | 0.00 | 0.00 | 34 | 1012.4 |
| 20260503210516 | 55 | 293 | 2.0 | 6.0 | 0.00 | 0.00 | 0.00 | 35 | 1012.5 |
| 20260503205516 | 55 | 293 | 1.0 | 4.0 | 0.00 | 0.00 | 0.00 | 36 | 1012.6 |
| 20260503204516 | 54 | 293 | 2.0 | 5.0 | 0.00 | 0.00 | 0.00 | 35 | 1012.6 |
| 20260503203516 | 54 | 293 | 3.0 | 8.0 | 0.00 | 0.00 | 0.00 | 35 | 1012.6 |
| 20260503202515 | 55 | 315 | 2.0 | 6.0 | 0.00 | 0.00 | 0.00 | 36 | 1012.8 |
| 20260503201516 | 55 | 293 | 1.0 | 6.0 | 0.00 | 0.00 | 0.00 | 35 | 1012.7 |
| 20260503200516 | 55 | 293 | 2.0 | 8.0 | 0.00 | 0.00 | 0.00 | 34 | 1012.8 |
| 20260503195516 | 54 | 293 | 2.0 | 6.0 | 0.00 | 0.00 | 0.00 | 36 | 1013.0 |
| 20260503194516 | 54 | 270 | 4.0 | 14.0 | 0.00 | 0.00 | 0.00 | 35 | 1012.9 |
| 20260503193536 | 54 | 293 | 3.0 | 9.0 | 0.00 | 0.00 | 0.00 | 35 | 1013.2 |
| 20260503192536 | 55 | 293 | 3.0 | 7.0 | 0.00 | 0.00 | 0.00 | 35 | 1013.2 |
| 20260503191536 | 55 | 293 | 2.0 | 7.0 | 0.00 | 0.00 | 0.00 | 35 | 1013.2 |
| 20260503190516 | 54 | 293 | 2.0 | 6.0 | 0.00 | 0.00 | 0.00 | 36 | 1013.3 |
| 20260503185536 | 54 | 293 | 2.0 | 7.0 | 0.00 | 0.00 | 0.00 | 36 | 1013.3 |
| 20260503184536 | 54 | 315 | 2.0 | 6.0 | 0.00 | 0.00 | 0.00 | 36 | 1013.5 |
| 20260503183515 | 54 | 0 | 3.0 | 8.0 | 0.00 | 0.00 | 0.00 | 34 | 1013.6 |
| 20260503182516 | 54 | 293 | 3.0 | 10.0 | 0.00 | 0.00 | 0.00 | 37 | 1013.6 |
| 20260503181515 | 53 | 293 | 2.0 | 7.0 | 0.00 | 0.00 | 0.00 | 38 | 1013.6 |
| 20260503180515 | 52 | 293 | 2.0 | 7.0 | 0.00 | 0.00 | 0.00 | 37 | 1013.7 |
| 20260503175535 | 52 | 293 | 1.0 | 8.0 | 0.00 | 0.00 | 0.00 | 41 | 1013.7 |
| 20260503174516 | 52 | 293 | 3.0 | 8.0 | 0.00 | 0.00 | 0.00 | 39 | 1013.9 |
| 20260503173515 | 52 | 293 | 3.0 | 7.0 | 0.00 | 0.00 | 0.00 | 38 | 1013.8 |
| 20260503172515 | 52 | 0 | 3.0 | 11.0 | 0.00 | 0.00 | 0.00 | 40 | 1013.9 |
| 20260503171515 | 51 | 293 | 3.0 | 8.0 | 0.00 | 0.00 | 0.00 | 40 | 1014.2 |
| 20260503170515 | 48 | 293 | 2.0 | 6.0 | 0.00 | 0.00 | 0.00 | 43 | 1013.8 |
| 20260503150517 | 45 | 293 | 2.0 | 5.0 | 0.00 | 0.00 | 0.00 | 51 | 1014.4 |
| 20260503130517 | 44 | 293 | 2.0 | 6.0 | 0.00 | 0.00 | 0.00 | 64 | 1014.6 |
| 20260503110517 | 37 | 0.0 | 3.0 | 0.00 | 0.01 | 0.00 | 77 | 1014.0 |